GW3032 Weather Reports


time (UTC)temp
C
wind
direction
speed
KPH
gust
KPH
rain 1hr
cm
rain 24hr
cm
rain mn
cm
humidity
%
barometer
mb
20260503224715 15 188 6.4 12.9 0.00 0.00 0.00 44 1013.1
20260503224213 15 251 4.8 9.7 0.00 0.00 0.00 43 1013.1
20260503223710 15 219 4.8 11.3 0.00 0.00 0.00 42 1013.0
20260503223208 15 249 1.6 12.9 0.00 0.00 0.00 45 1013.2
20260503222704 15 182 6.4 8.0 0.00 0.00 0.00 44 1013.1
20260503222202 15 144 4.8 16.1 0.00 0.00 0.00 42 1013.3
20260503221700 15 246 6.4 8.0 0.00 0.00 0.00 43 1013.3
20260503221157 15 294 4.8 12.9 0.00 0.00 0.00 46 1013.0
20260503220654 16 305 4.8 8.0 0.00 0.00 0.00 44 1013.2
20260503220150 16 172 3.2 11.3 0.00 0.00 0.00 42 1013.2
20260503215647 16 150 4.8 14.5 0.00 0.00 0.00 44 1013.1
20260503215143 15 209 4.8 11.3 0.00 0.00 0.00 43 1013.3
20260503214642 15 245 11.3 14.5 0.00 0.00 0.00 43 1013.4
20260503214137 15 200 4.8 9.7 0.00 0.00 0.00 44 1013.1
20260503213632 15 222 3.2 8.0 0.00 0.00 0.00 44 1013.1
20260503213128 15 306 3.2 11.3 0.00 0.00 0.00 46 1013.4
20260503212626 15 228 3.2 11.3 0.00 0.00 0.00 46 1013.2
20260503212123 15 275 1.6 8.0 0.00 0.00 0.00 44 1013.3
20260503211620 16 317 11.3 17.7 0.00 0.00 0.00 42 1013.4
20260503211115 15 250 1.6 11.3 0.00 0.00 0.00 45 1013.5
20260503210607 16 224 4.8 9.7 0.00 0.00 0.00 44 1013.5
20260503205559 16 225 3.2 8.0 0.00 0.00 0.00 43 1013.5
20260503205055 15 213 6.4 12.9 0.00 0.00 0.00 43 1013.6
20260503204552 15 245 6.4 12.9 0.00 0.00 0.00 45 1013.3
20260503204049 16 322 4.8 9.7 0.00 0.00 0.00 44 1013.7
20260503203546 16 284 4.8 11.3 0.00 0.00 0.00 45 1013.5
20260503203043 16 301 4.8 11.3 0.00 0.00 0.00 44 1013.8
20260503202541 15 233 8.0 12.9 0.00 0.00 0.00 43 1013.5
20260503202034 16 243 6.4 16.1 0.00 0.00 0.00 42 1013.5
20260503201532 17 259 8.0 11.3 0.00 0.00 0.00 41 1013.5
20260503201028 16 257 6.4 14.5 0.00 0.00 0.00 42 1013.6
20260503200524 17 275 4.8 12.9 0.00 0.00 0.00 40 1014.0
20260503200021 17 221 6.4 16.1 0.00 0.00 0.00 41 1013.8
20260503195518 17 181 9.7 17.7 0.00 0.00 0.00 42 1014.1
20260503195009 16 161 8.0 11.3 0.00 0.00 0.00 42 1014.0
20260503194507 16 205 3.2 12.9 0.00 0.00 0.00 43 1014.2
20260503194006 16 268 4.8 16.1 0.00 0.00 0.00 41 1014.3
20260503193503 16 259 4.8 11.3 0.00 0.00 0.00 43 1014.2
20260503192958 16 99 4.8 14.5 0.00 0.00 0.00 42 1014.5
20260503192454 16 156 4.8 12.9 0.00 0.00 0.00 41 1014.4
20260503191949 16 215 3.2 4.8 0.00 0.00 0.00 44 1014.5
20260503191448 16 301 1.6 16.1 0.00 0.00 0.00 43 1014.6
20260503190943 16 201 3.2 8.0 0.00 0.00 0.00 44 1014.8
20260503190441 16 231 8.0 12.9 0.00 0.00 0.00 42 1014.9
20260503185939 16 199 4.8 9.7 0.00 0.00 0.00 42 1014.9
20260503185435 16 219 4.8 12.9 0.00 0.00 0.00 46 1014.9
20260503184934 16 238 9.7 14.5 0.00 0.00 0.00 44 1015.0
20260503184431 16 210 9.7 20.9 0.00 0.00 0.00 41 1014.9
20260503183927 16 196 9.7 14.5 0.00 0.00 0.00 40 1015.1
20260503183424 15 186 3.2 11.3 0.00 0.00 0.00 43 1015.1
20260503182921 16 192 3.2 9.7 0.00 0.00 0.00 46 1015.2
20260503182420 16 212 6.4 11.3 0.00 0.00 0.00 45 1015.0
20260503181917 16 197 6.4 14.5 0.00 0.00 0.00 45 1015.3
20260503181414 15 241 4.8 11.3 0.00 0.00 0.00 47 1015.3
20260503180910 16 26 6.4 11.3 0.00 0.00 0.00 47 1015.4
20260503180408 16 227 4.8 12.9 0.00 0.00 0.00 42 1015.4
20260503175904 16 279 4.8 12.9 0.00 0.00 0.00 46 1015.6
20260503175403 15 269 6.4 11.3 0.00 0.00 0.00 50 1015.6
20260503174858 16 264 9.7 12.9 0.00 0.00 0.00 47 1015.5
20260503174356 16 55 4.8 9.7 0.00 0.00 0.00 49 1015.8
20260503173851 15 218 4.8 14.5 0.00 0.00 0.00 46 1015.7
20260503173348 15 279 8.0 12.9 0.00 0.00 0.00 49 1015.8
20260503172844 15 223 8.0 12.9 0.00 0.00 0.00 47 1015.9
20260503172342 15 140 6.4 12.9 0.00 0.00 0.00 51 1016.0
20260503171838 15 280 4.8 14.5 0.00 0.00 0.00 50 1015.9
20260503171335 15 276 3.2 12.9 0.00 0.00 0.00 49 1016.3
20260503170832 15 207 3.2 17.7 0.00 0.00 0.00 50 1016.3
20260503170329 15 290 9.7 12.9 0.00 0.00 0.00 49 1016.4
20260503150721 12 196 8.0 9.7 0.00 0.00 0.00 54 1016.9
20260503150217 11 333 0.0 11.3 0.00 0.00 0.00 52 1017.0
20260503140142 9 282 1.6 11.3 0.00 0.00 0.00 55 1017.4
20260503131111 7 289 0.0 8.0 0.00 0.00 0.00 62 1017.7
20260503130609 7 258 1.6 4.8 0.00 0.00 0.00 62 1017.9
20260503130106 7 226 3.2 8.0 0.00 0.00 0.00 62 1017.8
20260503110459 2 227 1.6 3.2 0.00 0.00 0.00 83 1017.5
20260503090344 2 269 0.0 1.6 0.00 0.00 0.00 85 1017.0
20260503081312 2 252 1.6 1.6 0.00 0.00 0.00 86 1017.2
20260503080808 2 262 1.6 1.6 0.00 0.00 0.00 87 1017.0
20260503080305 2 266 0.0 8.0 0.00 0.00 0.00 86 1017.1
20260503072741 2 279 0.0 1.6 0.00 0.00 0.00 89 1017.1
20260503072238 2 284 0.0 1.6 0.00 0.00 0.00 89 1017.1
20260503071734 2 275 0.0 1.6 0.00 0.00 0.00 89 1017.2
20260503071231 2 259 0.0 3.2 0.00 0.00 0.00 89 1017.1
20260503070728 2 275 0.0 1.6 0.00 0.00 0.00 90 1017.2
20260503070226 2 266 0.0 1.6 0.00 0.00 0.00 90 1017.3
20260503060145 2 264 0.0 1.6 0.00 0.00 0.00 91 1017.4
20260503054632 2 266 0.0 1.6 0.00 0.00 0.00 91 1017.5
20260503054129 3 267 0.0 1.6 0.00 0.00 0.00 91 1017.4
20260503053627 3 267 0.0 1.6 0.00 0.00 0.00 91 1017.5
20260503053126 3 267 0.0 1.6 0.00 0.00 0.00 90 1017.3
20260503052622 3 267 0.0 0.0 0.00 0.00 0.00 90 1017.3
20260503052118 3 270 0.0 0.0 0.00 0.00 0.00 91 1017.6
20260503051614 3 270 0.0 0.0 0.00 0.00 0.00 90 1017.4
20260503051112 3 270 0.0 0.0 0.00 0.00 0.00 90 1017.4
20260503050608 3 270 0.0 1.6 0.00 0.00 0.00 90 1017.5
20260503050105 3 270 0.0 1.6 0.00 0.00 0.00 91 1017.6
20260503045602 3 270 0.0 0.0 0.00 0.00 0.00 91 1017.6
20260503045059 3 270 0.0 0.0 0.00 0.00 0.00 90 1017.5
20260503044555 3 270 0.0 0.0 0.00 0.00 0.00 89 1017.5
20260503044054 3 270 0.0 0.0 0.00 0.00 0.00 88 1017.6
20260503043549 3 270 0.0 0.0 0.00 0.00 0.00 87 1017.4
20260503043046 3 270 0.0 0.0 0.00 0.00 0.00 86 1017.5
20260503042543 4 270 0.0 0.0 0.00 0.00 0.00 85 1017.5
20260503042039 4 270 0.0 0.0 0.00 0.00 0.00 85 1017.5
20260503041536 4 270 0.0 1.6 0.00 0.00 0.00 85 1017.5
20260503041034 4 270 0.0 0.0 0.00 0.00 0.00 85 1017.8
20260503040531 4 270 0.0 0.0 0.00 0.00 0.00 84 1017.7
20260503040028 5 270 0.0 0.0 0.00 0.28 0.28 85 1017.8
20260503035525 5 270 0.0 0.0 0.00 0.28 0.28 85 1017.8
20260503035023 5 264 0.0 3.2 0.00 0.28 0.28 84 1017.7
20260503034520 5 270 0.0 1.6 0.00 0.28 0.28 84 1017.6
20260503034016 4 270 0.0 0.0 0.00 0.28 0.28 84 1017.9
20260503033514 5 270 0.0 0.0 0.00 0.28 0.28 85 1017.6
20260503033012 5 270 0.0 1.6 0.00 0.28 0.28 84 1017.9
20260503032510 5 270 0.0 1.6 0.00 0.28 0.28 85 1017.7
20260503032008 5 270 0.0 0.0 0.00 0.28 0.28 84 1017.7
20260503031505 5 270 0.0 1.6 0.00 0.28 0.28 85 1017.6
20260503031002 5 270 0.0 1.6 0.00 0.28 0.28 84 1018.0
20260503030458 5 270 0.0 1.6 0.00 0.28 0.28 85 1018.0
20260503025955 5 272 0.0 1.6 0.00 0.28 0.28 85 1017.9
20260503025452 4 272 0.0 0.0 0.00 0.28 0.28 86 1017.8
20260503024950 5 272 0.0 0.0 0.00 0.28 0.28 86 1018.0
20260503024446 5 272 0.0 1.6 0.00 0.28 0.28 86 1018.0
20260503023943 5 272 0.0 0.0 0.00 0.28 0.28 87 1018.2
20260503023440 5 272 0.0 0.0 0.00 0.28 0.28 87 1018.0
20260503022937 4 272 0.0 1.6 0.00 0.28 0.28 86 1018.0
20260503022432 5 272 0.0 1.6 0.00 0.28 0.28 87 1018.2
20260503021928 5 272 0.0 0.0 0.00 0.28 0.28 87 1017.9
20260503021424 5 272 0.0 1.6 0.00 0.28 0.28 87 1018.1
20260503020922 5 272 0.0 0.0 0.00 0.28 0.28 87 1017.7
20260503020420 5 272 0.0 1.6 0.00 0.28 0.28 86 1017.8
20260503015916 5 272 0.0 1.6 0.00 0.28 0.28 86 1018.2
20260503015413 5 272 0.0 1.6 0.00 0.28 0.28 86 1017.9
20260503014908 5 272 0.0 1.6 0.00 0.28 0.28 85 1018.0
20260503014406 5 272 0.0 1.6 0.00 0.28 0.28 86 1018.0
20260503013904 5 272 0.0 0.0 0.00 0.28 0.28 85 1017.9
20260503013401 5 272 0.0 1.6 0.00 0.28 0.28 84 1017.8
20260503012858 5 272 0.0 1.6 0.00 0.28 0.28 83 1017.9
20260503012356 5 272 0.0 1.6 0.00 0.28 0.28 83 1018.0
20260503011852 5 272 0.0 0.0 0.00 0.28 0.28 83 1018.0
20260503011349 5 272 0.0 0.0 0.00 0.28 0.28 84 1017.9
20260503010845 5 272 0.0 1.6 0.00 0.28 0.28 83 1017.9
20260503010342 5 272 0.0 0.0 0.00 0.28 0.28 82 1017.9
20260503005838 5 272 0.0 0.0 0.00 0.28 0.28 81 1018.0
20260503005331 5 272 0.0 1.6 0.00 0.28 0.28 80 1017.8
20260503004827 5 272 0.0 1.6 0.00 0.28 0.28 80 1018.0
20260503004325 5 272 0.0 0.0 0.00 0.28 0.28 79 1017.9
20260503003822 5 272 0.0 0.0 0.00 0.28 0.28 78 1017.7
20260503003319 5 272 0.0 1.6 0.00 0.28 0.28 77 1017.9
20260503002816 5 272 0.0 0.0 0.00 0.28 0.28 76 1017.9
20260503002313 5 272 0.0 0.0 0.00 0.28 0.28 75 1017.8
20260503001809 5 273 0.0 0.0 0.00 0.28 0.28 75 1017.7
20260503001305 5 263 1.6 3.2 0.00 0.28 0.28 73 1017.7
20260503000803 5 290 1.6 1.6 0.00 0.28 0.28 74 1017.8
20260503000300 5 296 0.0 0.0 0.00 0.28 0.28 71 1017.7
20260502235757 6 296 0.0 0.0 0.00 0.28 0.28 71 1017.8
20260502235255 6 296 0.0 0.0 0.00 0.28 0.28 71 1017.8
20260502234751 6 296 0.0 0.0 0.00 0.28 0.28 66 1017.5
20260502234248 6 303 0.0 1.6 0.00 0.28 0.28 67 1017.6
20260502233744 6 338 1.6 1.6 0.00 0.28 0.28 66 1017.8
20260502233241 6 314 0.0 1.6 0.00 0.28 0.28 65 1017.5
20260502232737 6 302 0.0 1.6 0.00 0.28 0.28 64 1017.7
20260502232234 6 358 3.2 4.8 0.00 0.28 0.28 65 1017.7
20260502231731 6 25 3.2 4.8 0.00 0.28 0.28 65 1017.7
20260502231229 6 327 0.0 3.2 0.00 0.28 0.28 65 1017.5
20260502230727 6 322 4.8 4.8 0.00 0.28 0.28 64 1017.6
20260502230225 6 333 3.2 4.8 0.00 0.28 0.28 64 1017.6
20260502225721 6 290 0.0 1.6 0.00 0.28 0.28 66 1017.6
20260502225218 6 265 1.6 1.6 0.00 0.28 0.28 66 1017.7